Weather History for Prague, Czech Republic

Change the Weather History Date:

Tuesday, April 9, 2013

  Actual Average Record
Temperature  
Mean Temperature 42 °F -  
Max Temperature 49 °F 59 °F 68 °F (2009)
Min Temperature 34 °F 39 °F 19 °F (2003)
Degree Days  
Heating Degree Days 24    
Moisture  
Dew Point 33 °F    
Average Humidity 72    
Maximum Humidity 93    
Minimum Humidity 56    
Precipitation  
Precipitation 0.00 in 0.07 in - ()
Sea Level Pressure  
Sea Level Pressure 29.67 in    
Wind  
Wind Speed 6 mph ()    
Max Wind Speed 12 mph    
Max Gust Speed -    
Visibility 6.1 miles    
Events Rain    
Averages and records for this station are not official NWS values.
T = Trace of Precipitation, MM = Missing Value Source: Averaged Metar Reports

Daily Weather History Graph

Daily Weather History Graph

Search for Another Location

Airport:

Trip Planner

Search our weather history database for the weather conditions in past years. The results will help you decide how hot, cold, wet, or windy it might be!

Date:

Astronomy

Apr. 09, 2013 Rise Set
Actual Time 6:22 AM CEST 7:47 PM CEST
Civil Twilight 5:48 AM CEST 8:21 PM CEST
Nautical Twilight 5:08 AM CEST 9:02 PM CEST
Astronomical Twilight 4:23 AM CEST 9:47 PM CEST
Moon 5:40 AM CEST (4/9) 7:04 PM CEST (4/9)
Length of Visible Light 14h 32m
Length of Day
13h 25m
Waning Crescent, 1% of the Moon is Illuminated
Apr 9
Waning Crescent
Apr 10
New
Apr 18
First Quarter
Apr 25
Full
May 2
Last Quarter

Hourly Weather History & Observations

Time (CEST) Temp. Windchill Dew Point Humidity Pressure Visibility Wind Dir Wind Speed Gust Speed Precip Events Conditions
12:00 AM 39.2 °F 35.0 °F 24.8 °F 56% 29.71 in 6.2 mi East 5.8 mph - N/A   Scattered Clouds
12:30 AM 35.6 °F 28.6 °F 24.8 °F 65% 29.68 in 6.2 mi East 9.2 mph - N/A   Partly Cloudy
1:00 AM 35.6 °F 29.9 °F 26.6 °F 70% 29.68 in - East 6.9 mph - N/A   Clear
1:30 AM 35.6 °F 29.9 °F 26.6 °F 70% 29.68 in - East 6.9 mph - N/A   Clear
2:00 AM 37 °F - 27 °F 56% 29.74 in 12 mi East 8.9 mph - -   Overcast
2:00 AM 37.4 °F 32.1 °F 26.6 °F 65% 29.68 in - East 6.9 mph - N/A   Clear
2:30 AM 37.4 °F 31.4 °F 26.6 °F 65% 29.68 in - East 8.1 mph - N/A   Clear
3:00 AM 35.6 °F 32.8 °F 26.6 °F 70% 29.68 in - East 3.5 mph - N/A   Clear
3:30 AM 35.6 °F 31.7 °F 28.4 °F 75% 29.68 in - East 4.6 mph - N/A   Clear
4:00 AM 35.6 °F 32.8 °F 28.4 °F 75% 29.68 in - ESE 3.5 mph - N/A   Clear
4:30 AM 35.6 °F 31.7 °F 28.4 °F 75% 29.65 in - ESE 4.6 mph - N/A   Clear
5:00 AM 35.6 °F - 28.4 °F 75% 29.65 in - ESE 2.3 mph - N/A   Clear
5:30 AM 35.6 °F 32.8 °F 28.4 °F 75% 29.65 in - SE 3.5 mph - N/A   Clear
6:00 AM 35.6 °F 31.7 °F 28.4 °F 75% 29.65 in - SSE 4.6 mph - N/A   Clear
6:30 AM 35.6 °F 31.7 °F 30.2 °F 81% 29.65 in 5.0 mi SE 4.6 mph - N/A   Unknown
7:00 AM 35.6 °F - 30.2 °F 81% 29.68 in 5.0 mi Variable 1.2 mph - N/A   Unknown
7:30 AM 35.6 °F 32.8 °F 30.2 °F 81% 29.68 in 5.0 mi SSE 3.5 mph - N/A   Unknown
8:00 AM 38 °F - 30 °F 63% 29.73 in 5 mi SSE 4.5 mph - -   Mist
8:00 AM 37.4 °F 32.8 °F 30.2 °F 75% 29.68 in 5.0 mi SSE 5.8 mph - N/A   Partly Cloudy
8:30 AM 37.4 °F 33.8 °F 30.2 °F 75% 29.68 in 5.6 mi SSE 4.6 mph - N/A   Unknown
9:00 AM 41.0 °F 36.4 °F 30.2 °F 65% 29.68 in 6.2 mi SSW 6.9 mph - N/A   Mostly Cloudy
9:17 AM 39.2 °F 33.6 °F 30.2 °F 70% 29.68 in 6.2 mi SW 8.1 mph - N/A Rain Light Rain
9:30 AM 39.2 °F 33.0 °F 32.0 °F 75% 29.68 in 6.2 mi WSW 9.2 mph - N/A Rain Light Rain
10:00 AM 39.2 °F 34.2 °F 33.8 °F 81% 29.71 in 6.2 mi WSW 6.9 mph - N/A Rain Light Rain
10:30 AM 41.0 °F 38.0 °F 33.8 °F 76% 29.71 in 5.6 mi West 4.6 mph - N/A Rain Light Rain
11:00 AM 39.2 °F 35.9 °F 35.6 °F 87% 29.71 in 6.2 mi WSW 4.6 mph - N/A Rain Light Rain
11:30 AM 39.2 °F 35.9 °F 35.6 °F 87% 29.71 in 6.2 mi West 4.6 mph - N/A Rain Light Rain
11:43 AM 39.2 °F 35.9 °F 35.6 °F 87% 29.71 in 6.2 mi West 4.6 mph - N/A   Mostly Cloudy
12:00 PM 41.0 °F 39.0 °F 35.6 °F 81% 29.71 in 6.2 mi West 3.5 mph - N/A   Mostly Cloudy
12:30 PM 41.0 °F 38.0 °F 35.6 °F 81% 29.71 in 6.2 mi SSW 4.6 mph - N/A   Mostly Cloudy
1:00 PM 41.0 °F 38.0 °F 35.6 °F 81% 29.71 in 6.2 mi South 4.6 mph - N/A   Mostly Cloudy
1:30 PM 41.0 °F 38.0 °F 35.6 °F 81% 29.71 in 5.6 mi South 4.6 mph - N/A   Mostly Cloudy
2:00 PM 46 °F - 37 °F 62% 29.72 in 5 mi South 4.5 mph - -   Mist
2:00 PM 46.4 °F - 37.4 °F 71% 29.68 in 5.0 mi Variable 2.3 mph - N/A   Mostly Cloudy
2:30 PM 44.6 °F 43.1 °F 37.4 °F 76% 29.68 in 5.6 mi South 3.5 mph - N/A   Mostly Cloudy
3:00 PM 46.4 °F 45.2 °F 35.6 °F 66% 29.68 in 6.2 mi Variable 3.5 mph - N/A   Mostly Cloudy
3:30 PM 48.2 °F - 35.6 °F 62% 29.65 in 6.2 mi Variable 2.3 mph - N/A   Mostly Cloudy
4:00 PM 48.2 °F - 35.6 °F 62% 29.65 in 6.2 mi Variable 1.2 mph - N/A   Mostly Cloudy
4:30 PM 48.2 °F - 33.8 °F 58% 29.65 in 6.2 mi ENE 6.9 mph - N/A   Mostly Cloudy
5:00 PM 48.2 °F - 33.8 °F 58% 29.65 in 6.2 mi ENE 5.8 mph - N/A   Mostly Cloudy
5:30 PM 48.2 °F - 33.8 °F 58% 29.65 in 6.2 mi East 5.8 mph - N/A   Partly Cloudy
6:00 PM 48.2 °F - 33.8 °F 58% 29.65 in 6.2 mi East 8.1 mph - N/A   Partly Cloudy
6:30 PM 48.2 °F - 33.8 °F 58% 29.62 in 6.2 mi NE 6.9 mph - N/A   Partly Cloudy
7:00 PM 46.4 °F 43.5 °F 33.8 °F 62% 29.62 in 6.2 mi NE 5.8 mph - N/A   Partly Cloudy
7:30 PM 46.4 °F 41.9 °F 35.6 °F 66% 29.62 in 6.2 mi East 9.2 mph - N/A   Partly Cloudy
8:00 PM 46 °F - 35 °F 56% 29.67 in 9 mi East 8.9 mph - -   Overcast
8:00 PM 46.4 °F 41.5 °F 35.6 °F 66% 29.62 in 6.2 mi East 10.4 mph - N/A   Scattered Clouds
8:30 PM 46.4 °F 41.5 °F 35.6 °F 66% 29.65 in 6.2 mi East 10.4 mph - N/A   Scattered Clouds
9:00 PM 44.6 °F 39.2 °F 35.6 °F 71% 29.65 in 6.2 mi East 10.4 mph - N/A   Partly Cloudy
9:30 PM 44.6 °F 40.2 °F 35.6 °F 71% 29.65 in 6.2 mi ESE 8.1 mph - N/A   Partly Cloudy
9:37 PM 46.4 °F 41.9 °F 35.6 °F 66% 29.65 in 6.2 mi ESE 9.2 mph - N/A Rain Light Rain
10:00 PM 42.8 °F 37.0 °F 37.4 °F 81% 29.65 in 6.2 mi SSE 10.4 mph - N/A Rain Light Rain
10:20 PM 42.8 °F 37.0 °F 39.2 °F 87% 29.65 in 5.0 mi South 10.4 mph - N/A Rain Rain
10:30 PM 42.8 °F 36.6 °F 39.2 °F 87% 29.65 in 5.0 mi South 11.5 mph - N/A Rain Rain
10:50 PM 41.0 °F 34.3 °F 39.2 °F 93% 29.65 in 6.2 mi South 11.5 mph - N/A Rain Light Rain
11:00 PM 41.0 °F 35.2 °F 39.2 °F 93% 29.65 in 6.2 mi South 9.2 mph - N/A Rain Light Rain
11:30 PM 41.0 °F 36.4 °F 39.2 °F 93% 29.65 in 6.2 mi South 6.9 mph - N/A   Mostly Cloudy